KA8DUX-2 Weather Reports


Display with metric or nautical units.
time (UTC)temp
F
wind
direction
speed
MPH
gust
MPH
rain 1hr
in
rain 24hr
in
rain mn
in
humidity
%
barometer
mb
20260904131603 69 131 0.0 0.0 0.47 0.68 0.68 99 1015.9
20260904131059 69 75 1.0 2.0 0.90 0.66 0.66 99 1014.9
20260904130558 70 39 1.0 2.0 0.83 0.61 0.61 99 1015.2
20260904130053 70 5 4.0 5.0 0.42 0.50 0.50 99 1014.8
20260904125549 70 52 2.0 3.0 0.35 0.46 0.46 99 1014.3
20260904125044 70 31 3.0 3.0 0.24 0.43 0.43 99 1014.5
20260904124539 70 88 1.0 2.0 0.07 0.40 0.40 99 1014.9
20260904124035 70 349 1.0 1.0 0.05 0.39 0.39 99 1014.4
20260904123535 70 77 0.0 0.0 0.05 0.39 0.39 99 1014.1
20260904123031 70 122 0.0 0.0 0.00 0.38 0.38 99 1013.9
20260904122531 70 72 0.0 0.0 0.07 0.38 0.38 99 1014.8
20260904122026 70 122 0.0 0.0 0.07 0.38 0.38 99 1014.4
20260904121521 70 128 0.0 0.0 0.05 0.37 0.37 99 1014.1
20260904121017 70 122 0.0 0.0 0.05 0.37 0.37 99 1014.2
20260904120512 70 114 0.0 0.0 0.07 0.36 0.36 99 1014.3
20260904120002 70 89 0.0 1.0 0.12 0.36 0.36 99 1014.3
20260904115457 70 131 0.0 0.0 0.05 0.35 0.35 99 1014.7
20260904114956 70 136 0.0 0.0 0.07 0.34 0.34 99 1014.5
20260904114452 70 71 0.0 0.0 0.19 0.34 0.34 99 1014.5
20260904113947 70 133 0.0 0.0 0.24 0.33 0.33 99 1014.4
20260904113446 70 125 0.0 0.0 0.35 0.32 0.32 99 1014.2
20260904112940 70 130 0.0 0.0 1.02 0.29 0.29 99 1014.6
20260904112436 70 93 0.0 0.0 1.21 0.26 0.26 99 1014.5
20260904111932 70 142 2.0 5.0 0.78 0.18 0.18 99 1014.7
20260904111427 70 122 0.0 0.0 0.05 0.06 0.06 99 1013.8
20260904110923 70 205 0.0 0.0 0.07 0.05 0.05 99 1013.7
20260904110421 70 112 0.0 0.0 0.07 0.05 0.05 99 1013.2
20260904105917 70 127 0.0 0.0 0.05 0.04 0.04 99 1013.4
20260904105412 71 130 0.0 0.0 0.12 0.04 0.04 99 1013.2
20260904104907 71 127 0.0 0.0 0.12 0.03 0.03 98 1012.8
20260904104402 71 124 0.0 0.0 0.12 0.02 0.02 98 1013.2
20260904103859 71 121 0.0 0.0 0.07 0.01 0.01 98 1013.2
20260904103359 71 127 0.0 0.0 0.00 0.00 0.00 97 1012.9
20260904102855 71 111 0.0 0.0 0.00 0.00 0.00 98 1012.7
20260904102350 71 129 0.0 0.0 0.00 0.00 0.00 98 1012.5
20260904101846 71 124 0.0 0.0 0.00 0.00 0.00 98 1012.4
20260904101342 71 125 0.0 0.0 0.00 0.00 0.00 98 1011.9
20260904100837 71 126 0.0 0.0 0.00 0.00 0.00 98 1012.4
20260904100333 70 117 0.0 0.0 0.00 0.00 0.00 98 1012.5
20260904095828 70 133 0.0 0.0 0.00 0.00 0.00 98 1012.6
20260904095322 70 111 0.0 0.0 0.00 0.00 0.00 98 1012.2
20260904094818 70 127 0.0 0.0 0.00 0.00 0.00 98 1012.2
20260904094313 70 126 0.0 0.0 0.00 0.00 0.00 98 1012.4
20260904093809 70 132 0.0 0.0 0.00 0.00 0.00 98 1012.7
20260904093309 70 132 0.0 0.0 0.00 0.00 0.00 98 1012.4
20260904092803 71 139 0.0 0.0 0.00 0.00 0.00 98 1012.6
20260904092255 70 122 0.0 0.0 0.00 0.00 0.00 98 1012.4
20260904091751 70 128 0.0 0.0 0.00 0.00 0.00 98 1012.5
20260904091245 70 129 0.0 0.0 0.00 0.00 0.00 98 1012.7
20260904090741 71 158 0.0 0.0 0.00 0.00 0.00 98 1012.1
20260904090236 71 180 0.0 1.0 0.00 0.00 0.00 98 1011.8
20260904085731 71 125 0.0 0.0 0.00 0.00 0.00 98 1011.8
20260904085226 71 126 0.0 0.0 0.00 0.00 0.00 97 1012.0
20260904084721 71 134 0.0 0.0 0.00 0.00 0.00 97 1012.3
20260904084216 71 122 0.0 0.0 0.00 0.00 0.00 97 1012.4
20260904083712 71 117 0.0 0.0 0.00 0.00 0.00 97 1012.4
20260904083209 71 113 0.0 0.0 0.00 0.00 0.00 97 1012.4
20260904082703 71 62 0.0 0.0 0.00 0.00 0.00 97 1012.8
20260904082159 71 121 0.0 0.0 0.00 0.00 0.00 97 1013.0
20260904081654 71 113 0.0 0.0 0.00 0.00 0.00 97 1012.6
20260904081149 71 54 1.0 1.0 0.00 0.00 0.00 97 1012.8
20260904080645 71 95 0.0 0.0 0.00 0.00 0.00 98 1012.9
20260904080140 71 120 0.0 0.0 0.00 0.00 0.00 98 1012.6
20260904075637 71 58 0.0 1.0 0.00 0.00 0.00 98 1012.4
20260904075132 71 97 0.0 0.0 0.00 0.00 0.00 98 1012.5
20260904074631 71 109 0.0 0.0 0.00 0.00 0.00 98 1012.0
20260904074125 71 103 0.0 0.0 0.00 0.00 0.00 98 1012.0
20260904073620 71 118 0.0 0.0 0.00 0.00 0.00 98 1012.2
20260904073116 71 134 0.0 0.0 0.00 0.00 0.00 98 1012.5
20260904072612 70 146 0.0 0.0 0.00 0.00 0.00 98 1012.7
20260904072107 70 130 0.0 0.0 0.00 0.00 0.00 99 1012.5
20260904071557 70 162 0.0 0.0 0.00 0.00 0.00 99 1012.6
20260904071051 70 128 0.0 0.0 0.00 0.00 0.00 99 1012.6
20260904070550 70 113 0.0 0.0 0.00 0.00 0.00 99 1012.7
20260904070045 70 126 0.0 0.0 0.00 0.00 0.00 99 1012.7
20260904065540 70 121 0.0 0.0 0.00 0.00 0.00 99 1012.8
20260904065036 70 84 0.0 0.0 0.00 0.00 0.00 99 1012.6
20260904064533 69 110 0.0 0.0 0.00 0.00 0.00 99 1012.2
20260904064033 69 114 0.0 0.0 0.00 0.00 0.00 99 1012.3
20260904063529 69 129 0.0 0.0 0.00 0.00 0.00 99 1012.3
20260904063024 69 125 0.0 0.0 0.00 0.00 0.00 99 1012.6
20260904062520 69 124 0.0 0.0 0.00 0.00 0.00 99 1012.7
20260904062015 69 125 0.0 0.0 0.00 0.00 0.00 99 1013.0
20260904061511 69 124 0.0 0.0 0.00 0.00 0.00 99 1013.3
20260904061008 69 124 0.0 0.0 0.00 0.00 0.00 99 1013.5
20260904060503 69 107 0.0 0.0 0.00 0.00 0.00 99 1013.6
20260904055959 69 97 0.0 0.0 0.00 0.00 0.00 99 1013.6
20260904055454 69 124 0.0 0.0 0.00 0.00 0.00 99 1013.4
20260904054949 69 125 0.0 0.0 0.00 0.00 0.00 99 1013.7
20260904054445 69 124 0.0 0.0 0.00 0.00 0.00 99 1013.8
20260904053940 69 125 0.0 0.0 0.00 0.00 0.00 99 1013.5
20260904053440 69 116 0.0 0.0 0.00 0.00 0.00 99 1013.7
20260904052936 69 126 0.0 0.0 0.00 0.00 0.00 99 1013.6
20260904052432 69 127 0.0 0.0 0.00 0.00 0.00 99 1013.5
20260904051927 69 127 0.0 0.0 0.00 0.00 0.00 99 1013.4
20260904051424 69 128 0.0 0.0 0.00 0.00 0.00 99 1013.4
20260904050918 69 126 0.0 0.0 0.00 0.00 0.00 99 1013.6
20260904050414 69 126 0.0 0.0 0.00 0.00 0.00 99 1013.4
20260904045914 69 126 0.0 0.0 0.00 0.00 0.00 99 1013.6
20260904045409 69 132 0.0 0.0 0.00 0.00 0.00 99 1013.5
20260904044909 69 139 0.0 0.0 0.00 0.00 0.00 99 1013.4
20260904044401 69 126 0.0 0.0 0.00 0.00 0.00 99 1013.5
20260904043856 70 125 0.0 0.0 0.00 0.00 0.00 99 1013.6
20260904043353 70 125 0.0 0.0 0.00 0.00 0.00 99 1014.0
20260904042853 70 125 0.0 0.0 0.00 0.00 0.00 99 1014.1
20260904042349 70 133 0.0 0.0 0.00 0.00 0.00 99 1014.0
20260904041844 70 129 0.0 0.0 0.00 0.00 0.00 99 1014.0
20260904041340 70 124 0.0 0.0 0.00 0.00 0.00 99 1014.0
20260904040836 70 121 0.0 0.0 0.00 0.00 0.00 98 1014.1
20260904040331 70 125 0.0 0.0 0.00 0.00 0.00 98 1014.1
20260904035827 70 131 0.0 0.0 0.00 0.03 0.03 98 1014.3
20260904035323 70 129 0.0 0.0 0.00 0.03 0.03 98 1013.9
20260904034822 71 125 0.0 0.0 0.00 0.03 0.03 98 1014.1
20260904034317 71 126 0.0 0.0 0.00 0.03 0.03 98 1014.1
20260904033813 71 126 0.0 0.0 0.00 0.03 0.03 98 1014.3
20260904033309 71 126 0.0 0.0 0.00 0.03 0.03 97 1014.4
20260904032805 71 120 0.0 0.0 0.00 0.03 0.03 97 1014.5
20260904032306 71 126 0.0 0.0 0.00 0.03 0.03 97 1014.2
20260904031759 71 124 0.0 0.0 0.00 0.03 0.03 97 1014.1
20260904031254 71 116 0.0 0.0 0.00 0.03 0.03 96 1014.0
20260904030750 71 135 0.0 0.0 0.00 0.03 0.03 96 1014.1
20260904030246 71 126 0.0 0.0 0.00 0.03 0.03 96 1014.0
20260904025742 72 126 0.0 0.0 0.00 0.03 0.03 96 1014.1
20260904025237 72 129 0.0 0.0 0.00 0.03 0.03 95 1014.1
20260904024732 72 126 0.0 0.0 0.00 0.03 0.03 95 1014.0
20260904024227 72 130 0.0 0.0 0.00 0.03 0.03 95 1014.0
20260904023724 72 137 0.0 0.0 0.00 0.03 0.03 94 1013.9
20260904023219 72 136 0.0 0.0 0.00 0.03 0.03 94 1014.0
20260904022713 72 150 0.0 1.0 0.00 0.03 0.03 94 1013.6
20260904022210 73 160 1.0 1.0 0.00 0.03 0.03 94 1013.8
20260904021706 73 128 0.0 0.0 0.00 0.03 0.03 94 1014.0
20260904021201 73 131 0.0 0.0 0.00 0.03 0.03 93 1013.8
20260904020657 73 202 2.0 2.0 0.00 0.03 0.03 93 1013.7
20260904020156 73 135 0.0 0.0 0.00 0.03 0.03 93 1013.9
20260904015655 73 127 0.0 1.0 0.00 0.03 0.03 93 1013.6
20260904015155 73 131 0.0 0.0 0.00 0.03 0.03 93 1013.8
20260904014654 73 115 0.0 1.0 0.00 0.03 0.03 93 1013.6
20260904014149 73 122 0.0 0.0 0.00 0.03 0.03 93 1013.6
20260904013646 73 174 0.0 0.0 0.00 0.03 0.03 94 1013.5
20260904013141 73 135 0.0 0.0 0.00 0.03 0.03 94 1013.4
20260904012637 72 137 0.0 0.0 0.00 0.03 0.03 94 1013.5
20260904012136 72 143 0.0 0.0 0.00 0.03 0.03 94 1013.6
20260904011635 72 134 0.0 0.0 0.00 0.03 0.03 95 1013.5
20260904011131 72 134 0.0 0.0 0.00 0.03 0.03 95 1013.6
20260904010627 72 125 0.0 0.0 0.00 0.03 0.03 95 1013.6
20260904010123 72 128 0.0 0.0 0.00 0.03 0.03 94 1013.5
20260904005618 72 136 0.0 0.0 0.00 0.03 0.03 94 1013.6
20260904005113 72 148 0.0 0.0 0.00 0.03 0.03 94 1013.4
20260904004609 73 127 0.0 0.0 0.00 0.03 0.03 94 1013.4
20260904004108 73 132 0.0 0.0 0.00 0.03 0.03 93 1013.3
20260904003605 73 129 0.0 0.0 0.00 0.03 0.03 93 1013.3
20260904003100 73 121 0.0 0.0 0.00 0.03 0.03 93 1013.2
20260904002556 73 116 0.0 0.0 0.00 0.03 0.03 92 1013.1
20260904002050 73 119 0.0 0.0 0.00 0.03 0.03 92 1013.1
20260904001546 73 136 0.0 0.0 0.00 0.03 0.03 92 1012.8
20260904001044 73 126 0.0 0.0 0.00 0.03 0.03 91 1012.8
20260904000539 74 125 0.0 0.0 0.00 0.03 0.03 91 1012.9
20260904000035 74 126 0.0 0.0 0.00 0.03 0.03 90 1012.9
20260903235530 74 135 0.0 0.0 0.00 0.03 0.03 90 1012.9
20260903235026 74 113 0.0 0.0 0.00 0.03 0.03 90 1012.9
20260903234521 75 125 0.0 0.0 0.00 0.03 0.03 89 1012.7
20260903234016 75 136 0.0 0.0 0.00 0.03 0.03 89 1013.0
20260903233512 75 128 0.0 0.0 0.00 0.03 0.03 90 1013.2
20260903233008 75 145 0.0 0.0 0.00 0.03 0.03 89 1013.0
20260903232503 75 128 0.0 0.0 0.00 0.03 0.03 89 1013.0
20260903232003 75 126 0.0 0.0 0.00 0.03 0.03 89 1013.0
20260903231457 75 130 0.0 0.0 0.00 0.03 0.03 88 1013.0
20260903230952 75 123 0.0 0.0 0.00 0.03 0.03 88 1012.9
20260903230448 75 123 0.0 0.0 0.00 0.03 0.03 88 1012.6
20260903225944 76 117 0.0 0.0 0.00 0.03 0.03 88 1012.8
20260903225439 76 138 3.0 3.0 0.00 0.03 0.03 87 1012.5
20260903224935 76 139 1.0 1.0 0.00 0.03 0.03 86 1012.6
20260903224431 77 141 0.0 0.0 0.00 0.03 0.03 85 1012.6
20260903223927 77 141 0.0 0.0 0.00 0.03 0.03 85 1012.6
20260903223426 78 133 0.0 1.0 0.00 0.03 0.03 84 1012.6
20260903222919 77 135 1.0 1.0 0.00 0.03 0.03 85 1012.7
20260903222415 77 195 0.0 1.0 0.00 0.03 0.03 86 1012.9
20260903221909 77 215 2.0 3.0 0.00 0.03 0.03 87 1012.8
20260903221409 77 129 0.0 1.0 0.00 0.03 0.03 87 1012.4
20260903220906 76 125 0.0 1.0 0.00 0.03 0.03 88 1012.8
20260903220401 76 164 2.0 2.0 0.00 0.03 0.03 88 1012.8
20260903215858 76 145 1.0 2.0 0.00 0.03 0.03 87 1012.7
20260903215355 77 140 0.0 0.0 0.00 0.03 0.03 87 1012.9
20260903214853 77 118 0.0 1.0 0.00 0.03 0.03 87 1012.8
20260903214349 77 91 2.0 2.0 0.00 0.03 0.03 87 1013.2
20260903213849 77 241 1.0 1.0 0.00 0.03 0.03 87 1013.2
20260903213343 76 110 3.0 3.0 0.00 0.03 0.03 88 1013.3
20260903212840 76 305 1.0 2.0 0.00 0.03 0.03 90 1013.3
20260903212336 76 118 2.0 2.0 0.00 0.03 0.03 91 1013.1
20260903211835 76 343 0.0 1.0 0.00 0.03 0.03 91 1012.9
20260903211331 76 161 1.0 2.0 0.00 0.03 0.03 91 1013.0
20260903210827 76 188 1.0 2.0 0.00 0.03 0.03 93 1012.8
20260903210322 76 101 1.0 1.0 0.00 0.03 0.03 94 1012.6
20260903205821 76 98 0.0 0.0 0.00 0.03 0.03 95 1012.7
20260903205316 76 126 0.0 0.0 0.00 0.03 0.03 95 1012.4
20260903204811 76 130 0.0 0.0 0.00 0.03 0.03 94 1012.2
20260903204307 76 142 1.0 1.0 0.00 0.03 0.03 95 1012.5
20260903203803 76 119 0.0 0.0 0.00 0.03 0.03 95 1012.6
20260903203258 76 145 0.0 0.0 0.00 0.03 0.03 94 1012.7
20260903202757 77 126 0.0 0.0 0.00 0.03 0.03 94 1012.8
20260903202254 77 125 0.0 0.0 0.00 0.03 0.03 93 1013.3
20260903201752 77 125 0.0 0.0 0.00 0.03 0.03 93 1013.4
20260903201249 77 128 0.0 0.0 0.00 0.03 0.03 93 1013.3
20260903200747 77 132 0.0 0.0 0.00 0.03 0.03 91 1013.2
20260903200243 77 126 0.0 0.0 0.00 0.03 0.03 91 1013.2
20260903195737 77 125 0.0 0.0 0.00 0.03 0.03 90 1013.1
20260903195234 78 130 0.0 0.0 0.00 0.03 0.03 90 1013.2
20260903194733 78 137 0.0 0.0 0.00 0.03 0.03 91 1013.1
20260903194230 77 101 1.0 1.0 0.00 0.03 0.03 90 1013.3
20260903193725 77 123 0.0 0.0 0.00 0.03 0.03 91 1013.0
20260903193220 77 119 1.0 1.0 0.00 0.03 0.03 91 1013.2
20260903192716 76 134 0.0 0.0 0.00 0.03 0.03 91 1013.3
20260903192211 76 95 0.0 1.0 0.00 0.03 0.03 91 1013.4
20260903191708 76 128 0.0 0.0 0.00 0.03 0.03 91 1013.7
20260903191203 76 82 1.0 3.0 0.05 0.03 0.03 91 1013.8
20260903190657 76 122 0.0 0.0 0.05 0.03 0.03 92 1013.9
20260903190157 76 122 0.0 0.0 0.00 0.02 0.02 91 1014.0
20260903185652 76 119 0.0 0.0 0.00 0.02 0.02 90 1014.3
20260903185147 76 102 0.0 1.0 0.00 0.02 0.02 89 1014.4
20260903184643 77 124 1.0 1.0 0.00 0.02 0.02 89 1014.5
20260903184139 77 145 1.0 1.0 0.00 0.02 0.02 89 1014.6
20260903183637 77 126 0.0 0.0 0.00 0.02 0.02 89 1014.6
20260903183133 77 281 1.0 2.0 0.00 0.02 0.02 88 1014.8
20260903182632 77 27 2.0 2.0 0.00 0.02 0.02 89 1014.8
20260903182128 77 141 1.0 2.0 0.07 0.02 0.02 89 1014.9
20260903181626 79 76 2.0 2.0 0.07 0.02 0.02 88 1014.5
20260903181121 81 236 3.0 5.0 0.00 0.01 0.01 84 1014.6
20260903180616 82 186 1.0 1.0 0.00 0.01 0.01 81 1014.8
20260903180111 82 148 0.0 1.0 0.00 0.01 0.01 83 1014.7
20260903175610 81 129 0.0 1.0 0.00 0.01 0.01 83 1014.4
20260903175109 82 145 0.0 1.0 0.00 0.01 0.01 83 1014.3
20260903174604 82 86 1.0 1.0 0.00 0.01 0.01 83 1014.2
20260903174059 83 138 0.0 0.0 0.00 0.01 0.01 83 1013.9
20260903173554 83 115 0.0 0.0 0.00 0.01 0.01 82 1013.9
20260903173050 84 207 2.0 3.0 0.00 0.01 0.01 81 1013.7
20260903172544 84 135 0.0 0.0 0.00 0.01 0.01 81 1013.4
20260903172040 84 223 0.0 1.0 0.00 0.01 0.01 81 1013.1
20260903171534 84 155 0.0 0.0 0.00 0.01 0.01 81 1013.0
20260903171025 85 100 0.0 0.0 0.00 0.01 0.01 80 1013.3
20260903170523 86 123 0.0 0.0 0.00 0.01 0.01 80 1013.0
20260903170019 86 162 1.0 2.0 0.00 0.01 0.01 78 1012.8
20260903165511 86 115 0.0 1.0 0.00 0.01 0.01 79 1012.7
20260903165007 86 104 2.0 2.0 0.00 0.01 0.01 78 1012.2
20260903164507 86 139 1.0 2.0 0.00 0.01 0.01 78 1011.9
20260903164002 87 270 4.0 5.0 0.00 0.01 0.01 79 1011.9
20260903163456 87 120 1.0 1.0 0.00 0.01 0.01 79 1012.1
20260903162953 87 140 1.0 1.0 0.00 0.01 0.01 79 1011.6
20260903162449 87 131 0.0 1.0 0.00 0.01 0.01 81 1011.5
20260903161944 86 200 2.0 3.0 0.00 0.01 0.01 82 1011.7
20260903161440 86 148 2.0 2.0 0.00 0.01 0.01 82 1011.9
20260903160936 85 148 1.0 1.0 0.00 0.01 0.01 84 1012.1
20260903160434 84 137 0.0 1.0 0.00 0.01 0.01 85 1011.8
20260903155933 84 184 1.0 1.0 0.00 0.01 0.01 85 1011.9
20260903155428 85 148 0.0 0.0 0.00 0.01 0.01 86 1012.1
20260903154924 84 130 0.0 1.0 0.00 0.01 0.01 86 1012.0
20260903154420 84 177 1.0 2.0 0.00 0.01 0.01 85 1012.0
20260903153915 84 151 0.0 1.0 0.00 0.01 0.01 86 1011.9
20260903153410 84 129 0.0 0.0 0.00 0.01 0.01 86 1012.1
20260903152907 84 128 0.0 1.0 0.00 0.01 0.01 86 1012.0
20260903152403 84 136 0.0 0.0 0.00 0.01 0.01 87 1012.2
20260903151858 83 133 0.0 0.0 0.00 0.01 0.01 87 1012.5
20260903151353 83 140 0.0 0.0 0.00 0.01 0.01 88 1012.4
20260903150852 83 141 0.0 1.0 0.00 0.01 0.01 88 1012.5
20260903150347 83 145 0.0 0.0 0.00 0.01 0.01 88 1012.5
20260903145842 82 168 0.0 0.0 0.00 0.01 0.01 88 1012.6
20260903145337 82 134 0.0 0.0 0.00 0.01 0.01 89 1012.6
20260903144836 82 131 1.0 1.0 0.00 0.01 0.01 89 1012.5
20260903144332 82 137 0.0 0.0 0.00 0.01 0.01 90 1012.6
20260903143827 82 133 0.0 0.0 0.00 0.01 0.01 90 1012.4
20260903143324 82 137 0.0 0.0 0.00 0.01 0.01 91 1012.4
20260903142819 82 142 0.0 1.0 0.00 0.01 0.01 91 1012.8
20260903142315 82 132 0.0 0.0 0.00 0.01 0.01 92 1012.5
20260903141811 81 144 0.0 0.0 0.00 0.01 0.01 94 1012.6
20260903141307 80 136 0.0 0.0 0.00 0.01 0.01 97 1012.4
20260903140806 79 142 0.0 0.0 0.00 0.01 0.01 99 1012.3
20260903140301 78 128 0.0 0.0 0.00 0.01 0.01 99 1012.3
20260903135757 77 136 0.0 0.0 0.00 0.01 0.01 99 1012.5
20260903135253 77 154 0.0 0.0 0.00 0.01 0.01 99 1012.6
20260903134751 76 124 0.0 0.0 0.00 0.01 0.01 99 1012.6
20260903134247 76 131 0.0 0.0 0.00 0.01 0.01 99 1012.6
20260903133744 75 131 0.0 0.0 0.00 0.01 0.01 99 1012.7
20260903133240 75 130 0.0 0.0 0.00 0.01 0.01 99 1012.6
20260903132735 75 135 0.0 0.0 0.00 0.01 0.01 99 1012.9
20260903132229 75 133 0.0 0.0 0.00 0.01 0.01 99 1012.7
20260903131724 75 130 0.0 0.0 0.00 0.01 0.01 99 1012.6